[[{"header":{"parameterUnit":"m.s-1","parameterCategory":1,"la1":30.2991,"la2":30.254,"lo1":-89.0895,"lo2":-89.0444,"dy":0.0017,"dx":0.0017,"nx":28,"ny":28,"refTime":"2024-06-03T09:00:00:Z","depth":0,"parameterNumber":2,"parameterNumberName":"U-component_of_WINDS"},"data":[0,0,0,0,0,0,0,0,0,0,0,0,0,0,0,0,0,0,0,0,0,0,0,0,0,0,0,0,0,0,0,0,0,0,0,0,0,0,0,0,0,0,0,0,0,0,0,0,0,0,0,0,0,0,0,0,0,0,-0.2859,-0.286,0,-0.287,-0.287,-0.2871,-0.289,-0.289,-0.289,-0.2891,-0.2901,-0.2901,-0.2901,0,0,0,0,0,0,0,0,0,0,0,0,0,-0.2854,-0.2854,-0.2859,-0.286,-0.286,-0.287,-0.287,-0.2871,-0.289,-0.289,-0.289,-0.2891,-0.2901,-0.2901,-0.2901,0,0,0,0,0,0,0,0,0,0,0,0,0,-0.286,-0.2854,-0.2859,-0.287,-0.2872,-0.287,-0.287,-0.2871,-0.2889,-0.289,-0.2891,-0.2891,-0.2901,-0.2901,-0.2901,-0.2889,0,0,-0.2901,-0.2901,0,0,0,0,0,0,0,0,-0.2859,-0.286,-0.2869,-0.287,-0.2871,-0.2879,-0.2872,-0.2877,-0.2889,-0.2883,-0.2891,-0.2891,-0.2893,-0.2894,-0.2895,-0.289,-0.289,-0.2901,-0.2901,-0.29,-0.29,0,0,0,0,0,0,0,-0.2859,-0.286,-0.2864,-0.2869,-0.287,-0.2875,-0.2876,-0.2873,-0.2885,-0.2883,-0.2885,-0.2886,-0.2894,-0.2895,-0.2895,-0.2891,-0.2901,-0.2901,-0.29,-0.29,-0.2877,-0.2876,0,0,0,0,0,0,-0.2857,-0.2859,-0.2863,-0.2864,-0.2866,-0.2874,-0.2876,-0.2876,-0.2885,-0.2887,-0.2885,-0.2887,-0.2895,-0.2895,-0.2895,-0.2883,-0.29,-0.29,-0.29,-0.2877,-0.2877,-0.2876,0,0,0,0,0,0,-0.2857,-0.2857,-0.2863,-0.2862,-0.2863,-0.2874,-0.2874,-0.2876,-0.2877,-0.2886,-0.2888,-0.2884,-0.2895,-0.2896,-0.2891,-0.2883,-0.29,-0.29,-0.2878,-0.2877,-0.2876,-0.2857,0,0,0,0,0,0,-0.2857,-0.2857,-0.2853,-0.2862,-0.2863,-0.2858,-0.2873,-0.2876,-0.2877,-0.2878,-0.2886,-0.2887,-0.2896,-0.2891,-0.2891,-0.2883,-0.29,-0.2879,-0.2878,-0.2877,-0.2858,-0.2855,-0.2853,0,0,0,0,0,-0.2856,-0.2847,-0.2853,-0.2853,-0.2858,-0.2858,-0.2859,-0.2868,-0.2876,-0.2872,-0.2878,-0.2887,-0.2884,-0.289,-0.289,-0.2883,-0.2879,-0.2878,-0.2877,-0.2859,-0.2856,-0.2853,0,0,0,0,0,0,-0.2837,-0.2848,-0.2855,-0.2848,-0.2852,-0.2861,-0.2856,-0.2864,-0.2866,-0.2868,-0.2879,-0.2881,-0.2874,-0.2878,-0.2885,-0.2872,-0.2883,-0.2882,-0.287,-0.2867,-0.2864,-0.2864,-0.29,0,0,0,0,0,-0.2832,-0.2831,-0.2841,-0.2834,-0.2836,-0.2846,-0.2846,-0.2853,-0.2857,-0.2859,-0.2865,-0.2868,-0.2868,-0.2868,-0.2868,-0.2859,-0.286,-0.2854,-0.2851,-0.2849,-0.2848,-0.2843,-0.284,-0.2872,-0.2872,-0.2872,0,0,-0.2822,-0.2828,-0.2826,-0.283,-0.2834,-0.2832,-0.2847,-0.2845,-0.2843,-0.2858,-0.2854,-0.2859,-0.2863,-0.2856,-0.2853,-0.2859,-0.2839,-0.2847,-0.2845,-0.2845,-0.2841,-0.2838,-0.2835,-0.2871,-0.2871,-0.2871,0,0,-0.2802,-0.2807,-0.2801,-0.2805,-0.281,-0.2817,-0.2816,-0.2823,-0.2827,-0.2823,-0.2834,-0.2833,-0.2832,-0.2835,-0.2836,-0.2817,-0.2826,-0.2817,-0.2804,-0.2799,-0.2796,-0.2794,-0.2787,-0.2785,-0.2816,-0.2816,-0.2816,0,-0.2789,-0.2787,-0.2798,-0.2795,-0.2796,-0.2809,-0.2804,-0.2807,-0.2812,-0.2812,-0.2819,-0.2818,-0.2822,-0.2816,-0.2811,-0.2812,-0.281,-0.2816,-0.2796,-0.2794,-0.2792,-0.2785,-0.2783,-0.2815,-0.2815,-0.2815,-0.2815,0,-0.277,-0.2769,-0.2764,-0.2769,-0.2769,-0.2765,-0.2775,-0.2774,-0.2781,-0.2786,-0.2782,-0.2787,-0.2789,-0.2788,-0.2795,-0.2782,-0.2786,-0.2794,-0.2805,-0.2788,-0.2782,-0.2779,-0.2813,-0.2813,-0.2814,-0.2814,0,0,-0.2739,-0.275,-0.2748,-0.275,-0.2757,-0.2756,-0.2752,-0.2754,-0.2753,-0.2756,-0.2753,-0.2752,-0.2759,-0.276,-0.2767,-0.2763,-0.2748,-0.2772,-0.2772,-0.2767,-0.2734,-0.2728,-0.2725,-0.2753,-0.2753,-0.2752,-0.2734,0,-0.2721,-0.2716,-0.2725,-0.2717,-0.2716,-0.2728,-0.2725,-0.2728,-0.2733,-0.2733,-0.2738,-0.2738,-0.2747,-0.2748,-0.2745,-0.275,-0.2741,-0.2752,-0.275,-0.275,-0.2749,-0.2722,-0.2716,-0.2699,-0.2732,-0.2731,-0.2731,0,-0.27,-0.2702,-0.2694,-0.2701,-0.2701,-0.2698,-0.27,-0.2699,-0.2703,-0.2707,-0.2708,-0.2717,-0.2713,-0.2724,-0.2718,-0.2725,-0.2725,-0.2728,-0.2727,-0.2728,-0.274,-0.2722,-0.2693,-0.2691,-0.2728,-0.2728,-0.2728,0,-0.2678,-0.2679,-0.2674,-0.2676,-0.2684,-0.2681,-0.2684,-0.2689,-0.2689,-0.2691,-0.2691,-0.2692,-0.2693,-0.2693,-0.2701,-0.2709,-0.2695,-0.2707,-0.2698,-0.2698,-0.2695,-0.2695,-0.2666,-0.2695,-0.2695,-0.2695,-0.2695,0,-0.2658,-0.2652,-0.2665,-0.2662,-0.2656,-0.2666,-0.266,-0.2665,-0.2668,-0.2666,-0.2677,-0.2675,-0.2685,-0.2684,-0.269,-0.2685,-0.2685,-0.2688,-0.269,-0.2687,-0.2687,-0.2688,-0.2689,-0.2694,-0.2694,-0.2694,-0.2694,0,-0.2633,-0.2641,-0.2637,-0.2645,-0.2646,-0.2642,-0.2648,-0.2646,-0.2651,-0.2648,-0.2648,-0.2657,-0.2656,-0.2664,-0.2664,-0.2669,-0.266,-0.2664,-0.2659,-0.266,-0.2651,-0.2652,-0.2622,-0.2618,-0.2649,-0.2649,-0.2648,0,-0.2619,-0.2616,-0.2623,-0.2622,-0.2625,-0.2624,-0.2624,-0.2634,-0.2634,-0.2638,-0.2635,-0.2634,-0.2635,-0.2633,-0.2639,-0.2639,-0.2643,-0.2632,-0.2643,-0.2641,-0.2643,-0.2643,-0.2643,-0.263,-0.263,-0.2629,-0.2629,0,-0.2594,-0.2599,-0.2599,-0.26,-0.26,-0.2602,-0.2604,-0.2603,-0.2613,-0.2613,-0.2612,-0.2612,-0.2612,-0.2612,-0.2613,-0.2616,-0.2624,-0.2625,-0.2624,-0.2621,-0.2618,-0.262,-0.2653,-0.2626,-0.2627,-0.2627,-0.2627,-0.2627,-0.2575,-0.2572,-0.2577,-0.2577,-0.2579,-0.2581,-0.2579,-0.2584,-0.2584,-0.2585,-0.259,-0.2588,-0.2592,-0.2595,-0.2597,-0.2595,-0.26,-0.2597,-0.2597,-0.2596,-0.2594,-0.2618,-0.2595,-0.2595,-0.2595,-0.2595,-0.2596,0,-0.2551,-0.2555,-0.2554,-0.2557,-0.2557,-0.2564,-0.2567,-0.2566,-0.2564,-0.2567,-0.2567,-0.2566,-0.2565,-0.2571,-0.2571,-0.2569,-0.2572,-0.2568,-0.2569,-0.2569,-0.259,-0.2591,-0.2565,-0.2565,-0.2565,-0.2565,-0.2565,-0.2565,-0.2539,-0.2534,-0.2539,-0.2535,-0.2539,-0.2537,-0.2538,-0.2539,-0.2541,-0.254,-0.2539,-0.2543,-0.2547,-0.2547,-0.2547,-0.2548,-0.2548,-0.2543,-0.2546,-0.2565,-0.2568,-0.2571,-0.2572,-0.2543,-0.2543,-0.2525,-0.2525,-0.2525]},{"header":{"parameterUnit":"m.s-1","parameterCategory":1,"la1":30.2991,"la2":30.254,"lo1":-89.0895,"lo2":-89.0444,"dy":0.0017,"dx":0.0017,"nx":28,"ny":28,"refTime":"2024-06-03T09:00:00:Z","depth":0,"parameterNumber":3,"parameterNumberName":"V-component_of_WINDS"},"data":[0,0,0,0,0,0,0,0,0,0,0,0,0,0,0,0,0,0,0,0,0,0,0,0,0,0,0,0,0,0,0,0,0,0,0,0,0,0,0,0,0,0,0,0,0,0,0,0,0,0,0,0,0,0,0,0,0,0,5.0064,5.0065,0,5.0116,5.0116,5.0117,5.0047,5.0045,5.0042,5.004,5.0091,5.0094,5.0098,0,0,0,0,0,0,0,0,0,0,0,0,0,4.9902,4.9905,5.0064,5.0065,5.0066,5.0116,5.0116,5.0117,5.0048,5.0045,5.0042,5.0039,5.0089,5.0094,5.0098,0,0,0,0,0,0,0,0,0,0,0,0,0,4.9965,4.9906,5.0064,5.0037,5.0035,5.0116,5.0117,5.0117,5.0048,5.0044,5.0041,5.0037,5.0088,5.0093,5.0099,5.0208,0,0,5.0116,5.0118,0,0,0,0,0,0,0,0,4.9961,4.9971,5.004,5.0039,5.0037,5.0071,5.0078,5.0148,5.0049,5.0043,5.004,5.0035,5.0087,5.0092,5.011,5.021,5.0212,5.0116,5.0119,5.0122,5.0123,0,0,0,0,0,0,0,4.9957,4.9968,5.0085,5.0041,5.0039,5.0021,5.0026,5.0091,5.0085,5.0043,5.0039,5.0046,5.0085,5.0105,5.0111,5.0213,5.0116,5.0121,5.0124,5.0126,5.0401,5.0405,0,0,0,0,0,0,4.9956,4.9965,5.0083,5.0086,4.9989,5.0027,5.0032,5.0064,5.0085,5.0084,5.0049,5.0042,5.0097,5.0104,5.0112,5.0239,5.0122,5.0127,5.013,5.0398,5.0402,5.0407,0,0,0,0,0,0,4.9953,4.9967,5.0081,5.0024,5.0037,5.0034,5.007,5.0067,5.0087,5.0089,5.0087,5.007,5.0095,5.0105,5.0184,5.024,5.0129,5.0134,5.0393,5.0399,5.0405,5.0496,0,0,0,0,0,0,4.9949,4.9967,5.0009,5.0026,5.0041,5.0153,5.0074,5.0071,5.0097,5.0089,5.0108,5.0108,5.0093,5.0176,5.0189,5.0246,5.0139,5.0388,5.0396,5.0403,5.0488,5.0504,5.0518,0,0,0,0,0,4.9943,5.0033,5.0012,5.0027,5.0094,5.0157,5.0165,5.0146,5.0102,5.0143,5.0144,5.0107,5.0232,5.0185,5.0199,5.0258,5.0384,5.0393,5.0402,5.0481,5.0501,5.0518,0,0,0,0,0,0,5.0024,5.0035,5.0012,5.011,5.0133,5.0145,5.0197,5.0169,5.0204,5.0195,5.0169,5.0174,5.0259,5.0266,5.0214,5.0363,5.03,5.0313,5.0355,5.0375,5.0389,5.0386,5.0143,0,0,0,0,0,5.0053,5.0104,5.0111,5.0197,5.0209,5.0202,5.0228,5.0212,5.0234,5.0243,5.025,5.0272,5.0316,5.0346,5.0386,5.0488,5.049,5.0536,5.0551,5.0563,5.0574,5.0626,5.0646,5.0436,5.0436,5.0436,0,0,5.0114,5.0126,5.016,5.0213,5.0229,5.0281,5.021,5.0269,5.0306,5.0252,5.0327,5.0332,5.0355,5.0446,5.0486,5.0455,5.0632,5.0575,5.0585,5.0589,5.0638,5.0657,5.0675,5.0442,5.0441,5.044,0,0,5.0251,5.0267,5.0339,5.0356,5.038,5.0374,5.0391,5.0407,5.0409,5.0484,5.0443,5.0487,5.0564,5.0581,5.06,5.0741,5.0708,5.0755,5.0835,5.0885,5.0902,5.0916,5.0965,5.0983,5.0766,5.0766,5.0766,0,5.0324,5.0402,5.038,5.044,5.0464,5.0416,5.0488,5.0505,5.0542,5.0559,5.0523,5.0617,5.0629,5.0722,5.0756,5.0773,5.0791,5.0753,5.0902,5.0916,5.0929,5.0975,5.0994,5.0771,5.0771,5.077,5.077,0,5.0488,5.0543,5.0598,5.0634,5.0663,5.073,5.0716,5.0748,5.0728,5.0725,5.08,5.0813,5.0855,5.0875,5.0857,5.0965,5.0944,5.0906,5.0842,5.0955,5.0998,5.1015,5.0779,5.0777,5.0776,5.0774,0,0,5.068,5.0701,5.0722,5.0736,5.0759,5.08,5.0862,5.0903,5.093,5.0956,5.1007,5.1072,5.1035,5.1057,5.1039,5.1084,5.1192,5.1039,5.1039,5.1066,5.131,5.1339,5.136,5.117,5.1173,5.1176,5.1307,0,5.0816,5.0925,5.0906,5.1011,5.1059,5.1014,5.1068,5.1087,5.1085,5.1124,5.1122,5.1167,5.1117,5.1129,5.1171,5.117,5.1241,5.1161,5.1216,5.1218,5.1211,5.1382,5.1413,5.1537,5.1324,5.1327,5.1329,0,5.099,5.1021,5.1132,5.1144,5.1164,5.1213,5.1247,5.1286,5.1305,5.13,5.1324,5.1297,5.1357,5.1293,5.1374,5.132,5.1341,5.1344,5.1348,5.1352,5.128,5.139,5.1576,5.1594,5.1356,5.1353,5.1352,0,5.1116,5.1187,5.1261,5.1275,5.1292,5.1327,5.1336,5.1351,5.1376,5.1405,5.1421,5.1457,5.1476,5.1504,5.1487,5.1442,5.1571,5.1506,5.1568,5.1568,5.1597,5.1595,5.1788,5.1612,5.1612,5.1611,5.1611,0,5.127,5.1339,5.1318,5.1364,5.1439,5.1415,5.1489,5.1492,5.1506,5.155,5.1512,5.1554,5.153,5.1569,5.1556,5.1625,5.1634,5.1631,5.1627,5.1634,5.1634,5.1647,5.1638,5.1616,5.1615,5.1614,5.1613,0,5.1424,5.1413,5.1491,5.15,5.1503,5.1558,5.1565,5.1606,5.1601,5.1657,5.1669,5.166,5.1705,5.169,5.1738,5.1729,5.1816,5.1801,5.181,5.1806,5.1868,5.1862,5.2075,5.2101,5.1909,5.1911,5.1913,0,5.1523,5.1574,5.1588,5.1615,5.1626,5.167,5.1695,5.1673,5.17,5.1724,5.1762,5.1803,5.1835,5.1908,5.1905,5.1941,5.1926,5.1998,5.1931,5.1936,5.1925,5.1922,5.1926,5.2011,5.2013,5.2015,5.2017,0,5.1698,5.1689,5.1727,5.1762,5.1792,5.1819,5.1841,5.1865,5.1844,5.1876,5.1921,5.1945,5.1993,5.2034,5.2066,5.2073,5.2041,5.2038,5.2054,5.2062,5.2064,5.2062,5.1845,5.2033,5.2031,5.203,5.2029,5.2029,5.1826,5.1869,5.1885,5.1927,5.1942,5.1964,5.2003,5.2001,5.2039,5.2076,5.206,5.2112,5.2127,5.2166,5.2178,5.2216,5.2188,5.2212,5.2218,5.2224,5.2231,5.2058,5.2222,5.2222,5.2221,5.2221,5.222,0,5.1999,5.2006,5.2045,5.2078,5.211,5.2077,5.21,5.2129,5.2175,5.2192,5.2224,5.2274,5.2313,5.2312,5.2348,5.2379,5.2365,5.2389,5.2386,5.2388,5.2255,5.2237,5.2399,5.2399,5.2399,5.2399,5.2399,5.2399,5.2092,5.2162,5.2155,5.2231,5.2238,5.2288,5.2304,5.2323,5.2336,5.2394,5.2426,5.2425,5.2435,5.247,5.2503,5.2502,5.2516,5.2546,5.2539,5.2415,5.2397,5.238,5.2363,5.2549,5.2549,5.2668,5.2669,5.267]}]]